DW3929 Weather Reports


time (UTC)temp
C
wind
direction
speed
KPH
gust
KPH
rain 1hr
cm
rain 24hr
cm
rain mn
cm
humidity
%
barometer
mb
20260507110328 16 360 6.4 22.5 0.00 0.00 0.00 89 1015.7
20260507105826 16 360 3.2 22.5 0.00 0.00 0.00 89 1015.5
20260507105328 16 360 6.4 22.5 0.00 0.00 0.00 89 1015.5
20260507104827 16 360 8.0 22.5 0.00 0.00 0.00 89 1015.2
20260507104347 16 360 8.0 25.7 0.00 0.00 0.00 89 1014.9
20260507103825 16 360 6.4 25.7 0.00 0.00 0.00 88 1014.8
20260507103323 16 360 8.0 19.3 0.00 0.00 0.00 88 1014.6
20260507102822 16 360 6.4 19.3 0.00 0.00 0.00 88 1015.0
20260507102313 16 360 6.4 19.3 0.00 0.00 0.00 88 1015.0
20260507101828 16 360 9.7 22.5 0.00 0.00 0.00 88 1014.9
20260507101326 16 360 8.0 22.5 0.00 0.00 0.00 88 1014.7
20260507100826 16 360 8.0 20.9 0.00 0.00 0.00 88 1015.0
20260507100324 16 360 4.8 16.1 0.00 0.00 0.00 88 1014.9
20260507095845 16 360 6.4 16.1 0.00 0.00 0.00 87 1014.9
20260507095317 17 360 3.2 16.1 0.00 0.00 0.00 87 1015.1
20260507094838 17 360 3.2 16.1 0.00 0.00 0.00 87 1015.0
20260507094337 17 360 4.8 16.1 0.00 0.00 0.00 87 1015.0
20260507093836 17 360 4.8 16.1 0.00 0.00 0.00 86 1015.1
20260507093312 17 360 6.4 12.9 0.00 0.00 0.00 86 1014.9
20260507092852 17 360 1.6 16.1 0.00 0.00 0.00 87 1014.7
20260507092329 17 360 4.8 16.1 0.00 0.00 0.00 86 1014.8
20260507091825 17 360 1.6 16.1 0.00 0.00 0.00 87 1014.8
20260507091323 17 360 3.2 16.1 0.00 0.00 0.00 86 1014.7
20260507090822 17 360 4.8 12.9 0.00 0.00 0.00 86 1014.6
20260507090320 17 360 6.4 14.5 0.00 0.00 0.00 86 1014.6
20260507085819 17 360 4.8 17.7 0.00 0.00 0.00 86 1014.5
20260507085319 17 360 6.4 17.7 0.00 0.00 0.00 86 1014.4
20260507084837 17 360 4.8 12.9 0.00 0.00 0.00 86 1014.1
20260507084316 17 360 3.2 12.9 0.00 0.00 0.00 86 1014.4
20260507083816 17 360 3.2 14.5 0.00 0.00 0.00 86 1014.3
20260507083316 17 360 4.8 19.3 0.00 0.00 0.00 86 1014.3
20260507082848 17 360 6.4 19.3 0.00 0.00 0.00 86 1014.2
20260507082347 17 360 8.0 19.3 0.00 0.00 0.00 86 1014.2
20260507081826 17 360 4.8 17.7 0.00 0.00 0.00 85 1014.1
20260507081346 17 360 4.8 17.7 0.00 0.00 0.00 85 1014.1
20260507080825 17 360 1.6 17.7 0.00 0.00 0.00 85 1014.4
20260507080324 17 360 4.8 17.7 0.00 0.00 0.00 85 1014.2
20260507075846 17 360 4.8 16.1 0.00 0.00 0.00 85 1014.1
20260507075325 17 360 4.8 14.5 0.00 0.00 0.00 85 1014.4
20260507074824 17 360 4.8 14.5 0.00 0.00 0.00 86 1014.3
20260507074322 17 360 4.8 12.9 0.00 0.00 0.00 86 1014.2
20260507073822 17 360 4.8 9.7 0.00 0.00 0.00 86 1014.4
20260507073341 17 360 4.8 14.5 0.00 0.00 0.00 86 1014.5
20260507072819 17 360 4.8 14.5 0.00 0.00 0.00 86 1014.6
20260507072332 17 360 3.2 12.9 0.00 0.00 0.00 86 1014.6
20260507071832 17 360 3.2 9.7 0.00 0.00 0.00 86 1014.3
20260507071330 17 360 3.2 9.7 0.00 0.00 0.00 86 1014.3
20260507070831 17 360 3.2 14.5 0.00 0.00 0.00 86 1014.3
20260507070331 17 360 6.4 17.7 0.00 0.00 0.00 86 1014.2
20260507065831 17 360 4.8 17.7 0.00 0.00 0.00 86 1014.2
20260507065330 17 360 6.4 14.5 0.00 0.00 0.00 86 1014.4
20260507064830 17 360 4.8 14.5 0.00 0.00 0.00 86 1014.5
20260507064330 17 360 1.6 14.5 0.00 0.00 0.00 86 1014.3
20260507063830 17 360 4.8 14.5 0.00 0.00 0.00 86 1014.7
20260507063329 17 360 4.8 17.7 0.00 0.00 0.00 86 1014.6
20260507062828 17 360 4.8 17.7 0.00 0.00 0.00 86 1014.3
20260507062329 17 360 4.8 16.1 0.00 0.00 0.00 85 1014.2
20260507061830 17 360 4.8 16.1 0.00 0.00 0.00 85 1014.5
20260507061329 17 360 8.0 16.1 0.00 0.00 0.00 85 1013.7
20260507060828 17 360 1.6 19.3 0.00 0.00 0.00 85 1014.0
20260507060329 17 360 8.0 19.3 0.00 0.00 0.00 85 1014.2
20260507055829 17 360 8.0 19.3 0.00 0.00 0.00 85 1014.2
20260507055329 17 360 6.4 17.7 0.00 0.00 0.00 85 1014.0
20260507054850 17 360 4.8 22.5 0.00 0.00 0.00 85 1014.1
20260507054349 17 360 6.4 22.5 0.00 0.00 0.00 85 1014.2
20260507053336 17 360 4.8 17.7 0.00 0.00 0.00 85 1014.2
20260507052815 17 360 3.2 17.7 0.00 0.00 0.00 86 1014.1
20260507052314 17 360 4.8 16.1 0.00 0.00 0.00 86 1014.0
20260507051847 17 360 4.8 16.1 0.00 0.00 0.00 86 1014.1
20260507051324 17 360 6.4 17.7 0.00 0.00 0.00 85 1014.4
20260507050825 17 360 8.0 17.7 0.00 0.00 0.00 85 1014.5
20260507050324 17 360 4.8 20.9 0.00 0.00 0.00 86 1014.2
20260507045823 17 360 8.0 20.9 0.00 0.00 0.00 85 1014.3
20260507045324 17 360 6.4 20.9 0.00 0.00 0.00 85 1014.2
20260507044823 17 360 9.7 20.9 0.00 0.00 0.00 85 1014.1
20260507044322 17 360 6.4 22.5 0.00 0.00 0.00 85 1013.9
20260507043822 17 360 8.0 22.5 0.00 0.00 0.00 85 1013.9
20260507043324 17 360 6.4 16.1 0.00 0.00 0.00 85 1013.9
20260507042824 17 360 6.4 17.7 0.00 0.00 0.00 85 1014.0
20260507042344 17 360 6.4 25.7 0.00 0.00 0.00 85 1014.0
20260507041823 17 360 6.4 25.7 0.00 0.00 0.00 85 1014.1
20260507041319 17 360 9.7 20.9 0.00 0.00 0.00 86 1014.0
20260507040818 17 360 6.4 17.7 0.00 0.00 0.00 86 1013.8
20260507040312 17 360 8.0 17.7 0.00 0.00 0.00 86 1013.8
20260507035831 17 360 6.4 17.7 0.00 0.00 0.00 86 1013.7
20260507035330 17 360 6.4 16.1 0.00 0.00 0.00 86 1013.9
20260507034830 17 360 6.4 16.1 0.00 0.00 0.00 86 1014.0
20260507034346 17 360 8.0 14.5 0.00 0.00 0.00 86 1013.8
20260507033825 17 360 4.8 17.7 0.00 0.00 0.00 86 1013.8
20260507033319 17 360 8.0 17.7 0.00 0.00 0.00 86 1013.9
20260507032816 17 360 6.4 16.1 0.00 0.00 0.00 86 1013.4
20260507032316 17 360 4.8 16.1 0.00 0.00 0.00 86 1013.6
20260507031836 17 360 9.7 16.1 0.00 0.00 0.00 86 1013.4
20260507031315 17 360 6.4 12.9 0.00 0.00 0.00 86 1013.5
20260507030815 17 360 3.2 19.3 0.00 0.00 0.00 86 1013.7
20260507030335 17 360 3.2 16.1 0.00 0.00 0.00 86 1013.3
20260507025326 17 360 9.7 14.5 0.00 0.00 0.00 86 1013.6
20260507024826 17 360 3.2 14.5 0.00 0.00 0.00 86 1013.4
20260507024326 17 360 4.8 14.5 0.00 0.00 0.00 86 1012.9
20260507023826 17 360 3.2 14.5 0.00 0.00 0.00 86 1013.0
20260507023327 17 360 3.2 16.1 0.00 0.00 0.00 86 1012.9
20260507022826 17 360 4.8 16.1 0.00 0.00 0.00 86 1012.5
20260507022325 17 360 3.2 19.3 0.00 0.00 0.00 86 1012.9
20260507021826 17 360 4.8 19.3 0.00 0.00 0.00 85 1012.6
20260507021328 18 360 4.8 16.1 0.00 0.00 0.00 85 1012.5
20260507020827 18 360 6.4 16.1 0.00 0.00 0.00 85 1012.4
20260507020327 18 360 4.8 16.1 0.00 0.00 0.00 85 1012.6
20260507015828 18 360 4.8 16.1 0.00 0.00 0.00 85 1012.6
20260507015328 18 360 4.8 14.5 0.00 0.00 0.00 85 1013.0
20260507014828 18 360 4.8 14.5 0.00 0.00 0.00 85 1012.5
20260507014327 18 360 4.8 16.1 0.00 0.00 0.00 85 1012.6
20260507013846 18 360 3.2 16.1 0.00 0.00 0.00 85 1012.2
20260507013344 18 360 4.8 14.5 0.00 0.00 0.00 85 1012.1
20260507012821 18 360 4.8 12.9 0.00 0.00 0.00 85 1012.1
20260507012323 18 360 6.4 16.1 0.00 0.00 0.00 85 1012.1
20260507011820 18 360 4.8 16.1 0.00 0.00 0.00 84 1012.2
20260507011314 18 360 6.4 14.5 0.00 0.00 0.00 85 1012.0
20260507010828 18 360 6.4 16.1 0.00 0.00 0.00 84 1012.1
20260507010325 18 360 4.8 16.1 0.00 0.00 0.00 84 1011.8
20260507005845 18 360 4.8 20.9 0.00 0.00 0.00 84 1011.9
20260507005323 18 360 8.0 20.9 0.00 0.00 0.00 84 1011.8
20260507004822 18 360 4.8 19.3 0.00 0.00 0.00 84 1011.4
20260507004317 18 360 6.4 17.7 0.00 0.00 0.00 84 1011.4
20260507003816 18 360 8.0 20.9 0.00 0.00 0.00 83 1011.4
20260507003313 18 360 6.4 20.9 0.00 0.00 0.00 83 1011.5
20260507002812 18 360 6.4 17.7 0.00 0.00 0.00 83 1011.2
20260507002331 18 360 4.8 17.7 0.00 0.00 0.00 84 1011.3
20260507001830 18 360 4.8 19.3 0.00 0.00 0.00 83 1011.2
20260507001328 18 360 8.0 22.5 0.00 0.00 0.00 83 1011.1
20260507000828 18 360 8.0 22.5 0.00 0.00 0.00 82 1011.0
20260507000347 18 360 9.7 22.5 0.00 0.00 0.00 82 1011.1
20260506235825 18 360 9.7 22.5 0.00 0.00 0.00 81 1011.0
20260506235318 19 360 8.0 19.3 0.00 0.00 0.00 82 1011.1
20260506234816 19 360 4.8 20.9 0.00 0.00 0.00 82 1011.0
20260506234315 19 360 9.7 24.1 0.00 0.00 0.00 81 1010.9
20260506233814 19 360 9.7 24.1 0.00 0.00 0.00 81 1010.9
20260506233314 19 360 8.0 20.9 0.00 0.00 0.00 81 1010.9
20260506232832 19 360 8.0 20.9 0.00 0.00 0.00 81 1010.9
20260506232331 20 360 6.4 22.5 0.00 0.00 0.00 81 1010.9
20260506231830 20 360 6.4 29.0 0.00 0.00 0.00 79 1010.9
20260506231329 20 360 8.0 29.0 0.00 0.00 0.00 80 1010.8
20260506230850 20 360 8.0 22.5 0.00 0.00 0.00 80 1010.7
20260506230321 20 360 6.4 30.6 0.00 0.00 0.00 80 1010.6
20260506225821 20 360 8.0 30.6 0.00 0.00 0.00 80 1010.6
20260506225340 20 360 9.7 33.8 0.00 0.00 0.00 79 1010.5
20260506224838 21 360 11.3 33.8 0.00 0.00 0.00 79 1010.5
20260506224315 21 360 12.9 33.8 0.00 0.00 0.00 78 1010.4
20260506223813 21 360 6.4 20.9 0.00 0.00 0.00 79 1010.2
20260506223326 21 360 8.0 24.1 0.00 0.00 0.00 80 1010.3
20260506222826 21 360 9.7 22.5 0.00 0.00 0.00 78 1010.3
20260506222325 21 360 8.0 30.6 0.00 0.00 0.00 79 1010.4
20260506221824 22 360 11.3 30.6 0.00 0.00 0.00 78 1010.3
20260506221323 22 360 12.9 24.1 0.00 0.00 0.00 77 1010.3
20260506220821 22 360 12.9 24.1 0.00 0.00 0.00 78 1010.1
20260506220321 22 360 8.0 35.4 0.00 0.00 0.00 76 1010.0
20260506215821 23 360 9.7 35.4 0.00 0.00 0.00 78 1009.9
20260506215342 23 360 11.3 30.6 0.00 0.00 0.00 76 1009.8
20260506214819 23 360 8.0 27.4 0.00 0.00 0.00 76 1009.9
20260506214318 24 360 11.3 27.4 0.00 0.00 0.00 76 1009.8
20260506213818 24 360 11.3 24.1 0.00 0.00 0.00 76 1009.9
20260506213317 24 360 9.7 27.4 0.00 0.00 0.00 76 1009.7
20260506212816 24 360 11.3 27.4 0.00 0.00 0.00 76 1009.5
20260506212314 24 360 11.3 29.0 0.00 0.00 0.00 77 1009.6
20260506211851 24 360 11.3 25.7 0.00 0.00 0.00 79 1009.8
20260506211329 24 360 6.4 27.4 0.00 0.00 0.00 78 1009.8
20260506210828 24 360 6.4 27.4 0.00 0.00 0.00 78 1010.0
20260506210347 25 360 14.5 30.6 0.00 0.00 0.00 78 1010.0
20260506205824 25 360 6.4 19.3 0.00 0.00 0.00 78 1010.0
20260506205324 26 360 8.0 22.5 0.00 0.00 0.00 79 1009.9
20260506204824 26 360 8.0 22.5 0.00 0.00 0.00 77 1009.8
20260506204323 27 360 6.4 19.3 0.00 0.00 0.00 77 1009.7
20260506203824 27 360 6.4 20.9 0.00 0.00 0.00 78 1009.7
20260506203325 27 360 9.7 20.9 0.00 0.00 0.00 77 1009.8
20260506202846 27 360 6.4 19.3 0.00 0.00 0.00 78 1009.6
20260506202319 27 360 8.0 19.3 0.00 0.00 0.00 78 1009.6
20260506201818 27 360 6.4 17.7 0.00 0.00 0.00 79 1009.6
20260506201317 27 360 6.4 22.5 0.00 0.00 0.00 78 1009.7
20260506200815 27 360 6.4 22.5 0.00 0.00 0.00 79 1009.5
20260506200316 27 360 4.8 16.1 0.00 0.00 0.00 78 1009.6
20260506195817 27 360 6.4 16.1 0.00 0.00 0.00 79 1009.6
20260506195315 26 360 4.8 16.1 0.00 0.00 0.00 79 1009.5
20260506194816 26 360 8.0 16.1 0.00 0.00 0.00 77 1009.5
20260506194315 27 360 4.8 19.3 0.00 0.00 0.00 78 1009.7
20260506193815 27 360 9.7 19.3 0.00 0.00 0.00 78 1009.7
20260506193315 27 360 6.4 14.5 0.00 0.00 0.00 78 1009.6
20260506192813 26 360 4.8 14.5 0.00 0.00 0.00 78 1009.6
20260506192312 26 360 6.4 19.3 0.00 0.00 0.00 77 1009.6
20260506191830 26 360 4.8 19.3 0.00 0.00 0.00 77 1009.6
20260506191330 27 360 4.8 17.7 0.00 0.00 0.00 78 1009.6
20260506190849 26 360 8.0 17.7 0.00 0.00 0.00 78 1009.8
20260506190327 26 360 6.4 14.5 0.00 0.00 0.00 78 1009.8
20260506185814 26 360 4.8 12.9 0.00 0.00 0.00 78 1009.8
20260506185330 26 360 3.2 12.9 0.00 0.00 0.00 79 1009.9
20260506184831 26 360 6.4 14.5 0.00 0.00 0.00 79 1009.7
20260506184329 25 360 6.4 14.5 0.00 0.00 0.00 79 1009.7
20260506183827 25 360 3.2 17.7 0.00 0.00 0.00 81 1009.9
20260506183325 25 360 6.4 17.7 0.00 0.00 0.00 81 1009.9
20260506182842 25 360 4.8 14.5 0.00 0.00 0.00 82 1010.0
20260506182315 24 360 6.4 12.9 0.00 0.00 0.00 84 1009.9
20260506181816 23 360 1.6 14.5 0.00 0.00 0.00 84 1009.9
20260506181328 23 360 4.8 16.1 0.00 0.00 0.00 83 1009.9
20260506180828 23 360 8.0 17.7 0.00 0.00 0.00 83 1009.9
20260506180326 23 360 6.4 17.7 0.00 0.00 0.00 84 1009.9
20260506175825 22 360 4.8 16.1 0.00 0.00 0.00 88 1010.1
20260506175322 21 360 8.0 16.1 0.00 0.00 0.00 90 1010.1
20260506174821 21 360 6.4 17.7 0.00 0.00 0.00 90 1010.1
20260506174320 20 360 4.8 12.9 0.00 0.00 0.00 91 1010.3
20260506173820 20 360 1.6 17.7 0.00 0.00 0.00 91 1010.5
20260506173318 20 360 4.8 17.7 0.00 0.00 0.00 90 1010.8
20260506172817 20 360 6.4 20.9 0.00 0.00 0.00 88 1010.8
20260506172317 21 360 6.4 19.3 0.00 0.00 0.00 86 1010.9
20260506171814 21 360 8.0 22.5 0.00 0.00 0.00 85 1011.1
20260506171334 22 360 9.7 22.5 0.00 0.00 0.00 84 1011.1
20260506170831 23 360 11.3 20.9 0.00 0.00 0.00 83 1011.0
20260506170330 24 360 11.3 33.8 0.00 0.00 0.00 80 1010.9
20260506165829 26 360 17.7 33.8 0.00 0.00 0.00 77 1010.9
20260506165318 27 360 4.8 16.1 0.00 0.00 0.00 86 1010.6
20260506164817 27 360 6.4 16.1 0.00 0.00 0.00 88 1010.6
20260506164332 27 360 4.8 9.7 0.00 0.00 0.00 89 1010.5
20260506163832 27 360 3.2 9.7 0.00 0.00 0.00 90 1010.7
20260506163330 26 360 3.2 8.0 0.00 0.00 0.00 90 1010.7
20260506162830 26 360 3.2 9.7 0.00 0.00 0.00 90 1010.8
20260506162329 26 360 3.2 12.9 0.00 0.00 0.00 91 1010.8
20260506161825 26 360 4.8 12.9 0.00 0.00 0.00 90 1010.8
20260506161321 26 360 4.8 8.0 0.00 0.00 0.00 92 1011.0
20260506160819 26 360 1.6 8.0 0.00 0.00 0.00 91 1011.0
20260506160317 26 360 4.8 8.0 0.00 0.00 0.00 91 1010.9
20260506155816 26 360 1.6 8.0 0.00 0.00 0.00 92 1010.8
20260506155314 26 360 3.2 8.0 0.00 0.00 0.00 92 1010.7
20260506154815 26 360 4.8 8.0 0.00 0.00 0.00 92 1010.5
20260506154314 26 360 3.2 6.4 0.00 0.00 0.00 92 1010.4
20260506153813 26 360 1.6 6.4 0.00 0.00 0.00 92 1010.2
20260506153330 26 360 3.2 6.4 0.00 0.00 0.00 92 1010.0
20260506152829 26 360 0.0 4.8 0.00 0.00 0.00 92 1009.8
20260506152326 26 360 1.6 4.8 0.00 0.00 0.00 92 1009.6
20260506151825 26 360 1.6 4.8 0.00 0.00 0.00 92 1009.6
20260506151324 26 360 1.6 4.8 0.00 0.00 0.00 92 1009.5
20260506150825 26 360 1.6 4.8 0.00 0.00 0.00 92 1009.5
20260506150318 26 360 1.6 6.4 0.00 0.00 0.00 93 1009.4
20260506145817 25 360 1.6 4.8 0.00 0.00 0.00 93 1009.4
20260506145314 25 360 1.6 6.4 0.00 0.00 0.00 93 1009.2
20260506144813 25 360 1.6 6.4 0.00 0.00 0.00 93 1009.4
20260506144313 25 360 3.2 6.4 0.00 0.00 0.00 94 1009.3
20260506143812 25 360 0.0 3.2 0.00 0.00 0.00 94 1009.4
20260506143325 25 360 1.6 3.2 0.00 0.00 0.00 94 1009.5
20260506142825 25 360 1.6 4.8 0.00 0.00 0.00 94 1009.5
20260506142320 25 360 0.0 4.8 0.00 0.00 0.00 93 1009.5
20260506141818 25 360 1.6 4.8 0.00 0.00 0.00 93 1009.3
20260506141336 25 360 1.6 4.8 0.00 0.00 0.00 94 1009.1
20260506140814 25 360 0.0 3.2 0.00 0.00 0.00 94 1009.0
20260506140312 25 360 1.6 3.2 0.00 0.00 0.00 94 1008.8
20260506135813 25 360 0.0 4.8 0.00 0.00 0.00 94 1008.7
20260506135351 25 360 1.6 4.8 0.00 0.00 0.00 94 1008.5
20260506134829 25 360 0.0 8.0 0.00 0.00 0.00 94 1008.4
20260506134323 25 360 1.6 8.0 0.00 0.00 0.00 95 1008.4
20260506133820 25 360 1.6 6.4 0.00 0.00 0.00 95 1008.4
20260506133341 25 360 3.2 6.4 0.00 0.00 0.00 95 1008.4
20260506132817 25 360 3.2 6.4 0.00 0.00 0.00 96 1008.4
20260506132336 25 360 1.6 3.2 0.00 0.00 0.00 96 1008.4
20260506131815 24 360 1.6 6.4 0.00 0.00 0.00 96 1008.3
20260506131315 24 360 3.2 6.4 0.00 0.00 0.00 96 1008.4
20260506130814 24 360 3.2 4.8 0.00 0.00 0.00 97 1008.3
20260506130313 24 360 0.0 3.2 0.00 0.00 0.00 97 1008.3
20260506125812 24 360 0.0 3.2 0.00 0.00 0.00 97 1008.4
20260506125312 24 360 1.6 3.2 0.00 0.00 0.00 97 1008.5
20260506124850 24 360 0.0 3.2 0.00 0.00 0.00 97 1008.6
20260506124328 24 360 0.0 1.6 0.00 0.00 0.00 96 1008.7
20260506123828 24 360 0.0 1.6 0.00 0.00 0.00 96 1008.6
20260506123328 24 360 0.0 1.6 0.00 0.00 0.00 96 1008.6
20260506122832 24 360 0.0 3.2 0.00 0.00 0.00 96 1008.5
20260506122330 24 360 1.6 3.2 0.00 0.00 0.00 96 1008.4
20260506121829 24 360 0.0 3.2 0.00 0.00 0.00 96 1008.4
20260506121328 23 360 0.0 3.2 0.00 0.00 0.00 96 1008.3
20260506120829 24 360 0.0 3.2 0.00 0.00 0.00 96 1008.3
20260506120320 24 360 0.0 3.2 0.00 0.00 0.00 96 1008.3
20260506115819 24 360 1.6 3.2 0.00 0.00 0.00 96 1008.3
20260506115317 24 360 1.6 8.0 0.00 0.00 0.00 96 1008.2
20260506114818 24 360 0.0 8.0 0.00 0.00 0.00 96 1008.1
20260506114312 24 360 0.0 3.2 0.00 0.00 0.00 96 1008.1
20260506113827 24 360 0.0 3.2 0.00 0.00 0.00 96 1008.1
20260506113327 24 360 0.0 4.8 0.00 0.00 0.00 96 1008.2
20260506112847 24 360 1.6 4.8 0.00 0.00 0.00 96 1008.2
20260506112327 24 360 1.6 6.4 0.00 0.00 0.00 96 1008.1
20260506111826 24 360 3.2 8.0 0.00 0.00 0.00 96 1007.9
20260506111324 24 360 4.8 8.0 0.00 0.00 0.00 96 1007.9
20260506110824 24 360 4.8 8.0 0.00 0.00 0.00 96 1007.9